Montego Bay, Jamaica

7:42 PM EST on June 24, 2018 (GMT -0500)
Sangster International

Weather History for MKJS - August, 2017

Change the Weather History Date:

Sunday, August 13, 2017

  Actual Average Record
Temperature  
Mean Temperature 84 °F -  
Max Temperature 93 °F 87 °F 93 °F (2001)
Min Temperature 75 °F 77 °F 75 °F (2017)
Cooling Degree Days 19    
Growing Degree Days 34 (Base 50)    
Moisture  
Dew Point 76 °F    
Average Humidity 80    
Maximum Humidity 96    
Minimum Humidity 57    
Precipitation  
Precipitation 1.14 in - - ()
Sea Level Pressure  
Sea Level Pressure 29.95 in    
Wind  
Wind Speed 5 mph ()    
Max Wind Speed 22 mph    
Max Gust Speed 32 mph    
Visibility 7.7 miles    
Events Rain , Thunderstorm    
Averages and records for this station are not official NWS values.
T = Trace of Precipitation, MM = Missing Value Source: Averaged Metar Reports

Daily Weather History Graph

Daily Weather History Graph

Search for Another Location

Airport or City:

Astronomy

Aug. 13, 2017 Rise Set
Actual Time 5:52 AM EST 6:39 PM EST
Civil Twilight 5:30 AM EST 7:02 PM EST
Nautical Twilight 5:03 AM EST 7:29 PM EST
Astronomical Twilight 4:36 AM EST 7:56 PM EST
Moon 11:04 PM EST (8/13) 11:02 AM EST (8/13)
Length of Visible Light 13h 32m
Length of Day
12h 46m
Waning Gibbous, 65% of the Moon is Illuminated
Aug 13
Waning Gibbous
Aug 14
Last Quarter
Aug 21
New
Aug 29
First Quarter
Sep 6
Full

Hourly Weather History & Observations

Time (EST) Temp. Heat Index Dew Point Humidity Pressure Visibility Wind Dir Wind Speed Gust Speed Precip Events Conditions
12:00 AM 80.6 °F 86.2 °F 75.2 °F 84% 29.95 in 6.2 mi Variable 1.2 mph - N/A   Partly Cloudy
1:00 AM 80 °F - 76 °F 84% 29.96 in 12 mi 2.3 mph - -   Scattered Clouds
1:00 AM 80.6 °F 85.4 °F 73.4 °F 79% 29.95 in 6.2 mi Variable 2.3 mph - N/A   Partly Cloudy
2:00 AM 80.6 °F 85.4 °F 73.4 °F 79% 29.92 in 6.2 mi Variable 2.3 mph - N/A   Partly Cloudy
3:00 AM 80.6 °F 85.4 °F 73.4 °F 79% 29.92 in 6.2 mi Variable 2.3 mph - N/A   Partly Cloudy
4:00 AM 80 °F - 73 °F 74% 29.93 in 12 mi 2.3 mph - -   Scattered Clouds
4:00 AM 78.8 °F - 73.4 °F 83% 29.92 in 6.2 mi Variable 2.3 mph - N/A   Partly Cloudy
5:00 AM 80.6 °F 85.4 °F 73.4 °F 79% 29.92 in 6.2 mi Variable 1.2 mph - N/A   Partly Cloudy
6:00 AM 80.6 °F 84.6 °F 71.6 °F 74% 29.92 in 6.2 mi Variable 2.3 mph - N/A   Partly Cloudy
7:00 AM 81 °F - 74 °F 75% 29.96 in 17 mi SSE 5.8 mph - -   Scattered Clouds
7:00 AM 82.4 °F 88.2 °F 73.4 °F 74% 29.95 in 6.2 mi SSE 5.8 mph - N/A   Partly Cloudy
8:00 AM 87.8 °F 97.6 °F 75.2 °F 66% 29.95 in 6.2 mi Variable 1.2 mph - N/A   Partly Cloudy
9:00 AM 86.0 °F 96.9 °F 77.0 °F 74% 29.98 in 6.2 mi NE 10.4 mph - N/A   Partly Cloudy
10:00 AM 87 °F - 74 °F 57% 30.01 in 14 mi SE 15.0 mph - - Rain Light Rain Showers
10:00 AM 87.8 °F 99.7 °F 77.0 °F 70% 29.98 in 6.2 mi NE 12.7 mph - N/A   Partly Cloudy
11:00 AM 89.6 °F 102.2 °F 77.0 °F 66% 29.98 in 6.2 mi ENE 15.0 mph - N/A   Partly Cloudy
12:00 PM 87.8 °F 102.5 °F 78.8 °F 75% 29.98 in 6.2 mi NE 15.0 mph - N/A   Partly Cloudy
1:00 PM 88 °F - 83 °F 83% 29.96 in 17 mi East 17.3 mph - - Rain , Thunderstorm Thunderstorms and Rain
1:00 PM 86.0 °F 101.9 °F 80.6 °F 84% 29.95 in 6.2 mi East 17.3 mph - N/A Rain , Thunderstorm Light Thunderstorms and Rain
1:29 PM 80.6 °F 85.4 °F 73.4 °F 79% 29.98 in 1.9 mi SSE 21.9 mph - N/A Rain , Thunderstorm Heavy Thunderstorms and Rain
1:43 PM 75.2 °F - 69.8 °F 83% 29.98 in 0.6 mi SSE 20.7 mph 32.2 mph N/A Rain , Thunderstorm Heavy Thunderstorms and Rain
2:00 PM 75.2 °F - 71.6 °F 89% 29.98 in 2.8 mi SSW 10.4 mph - N/A Rain , Thunderstorm Light Thunderstorms and Rain
2:31 PM 77.0 °F - 73.4 °F 89% 29.95 in 6.2 mi South 6.9 mph - N/A Thunderstorm Thunderstorm
3:00 PM 78.8 °F - 73.4 °F 83% 29.95 in 6.2 mi South 4.6 mph - N/A Thunderstorm Thunderstorm
4:00 PM 81 °F - 76 °F 81% 29.95 in 16 mi 2.3 mph - - Thunderstorm Light Thunderstorm
4:00 PM 80.6 °F 87.1 °F 77.0 °F 89% 29.95 in 6.2 mi Variable 2.3 mph - N/A   Mostly Cloudy
5:00 PM 86.0 °F 99.3 °F 78.8 °F 79% 29.92 in 6.2 mi Variable 1.2 mph - N/A   Partly Cloudy
6:00 PM 84.2 °F 96.1 °F 78.8 °F 84% 29.92 in 6.2 mi SW 5.8 mph - N/A   Scattered Clouds
7:00 PM 83 °F - 82 °F 96% 29.96 in 14 mi South 3.5 mph - -   Haze
7:00 PM 82.4 °F 90.9 °F 77.0 °F 84% 29.95 in 6.2 mi South 3.5 mph - N/A   Scattered Clouds
8:00 PM 82.4 °F 90.9 °F 77.0 °F 84% 29.95 in 6.2 mi SSE 3.5 mph - N/A   Partly Cloudy
9:00 PM 80.6 °F 87.1 °F 77.0 °F 89% 29.95 in 6.2 mi Variable 1.2 mph - N/A   Partly Cloudy
10:00 PM 82 °F - 76 °F 76% 29.97 in 12 mi SSE 5.8 mph - -   Haze
10:00 PM 82.4 °F 89.5 °F 75.2 °F 79% 29.95 in 6.2 mi SSE 5.8 mph - N/A   Partly Cloudy
11:00 PM 80.6 °F 86.2 °F 75.2 °F 84% 29.98 in 6.2 mi East 4.6 mph - N/A   Partly Cloudy